Hourly Data Report for May 27, 2021

DRYDEN REGIONAL
ONTARIO
Current Station Operator: NAVCAN

49°49'39.000" N
92°44'39.000" W
412.70 m
6032125
71527
YHD

Download Data

Hourly Data (May 2021)
Hourly Data Report for May 27, 2021
TIME
LST
Temp Definition
°C
Dew Point Definition
°C
Rel Hum Definition
%
Precip. Amount Definition
mm

Wind Dir Definition
10's deg

Wind Spd Definition
km/h
Visibility Definition
km
Stn Press Definition
kPa
Hmdx Definition


Wind Chill Definition


Weather Definition


00:00 -1.0 -5.4 72 0.0 4 11 16.1 97.73   -5 LegendNANA
01:00 -1.5 -4.9 78 0.0 10 8 16.1 97.80   -5 LegendNANA
02:00 -1.6 -4.4 82 0.0 7 8 16.1 97.79   -5 LegendNANA
03:00 -2.4 -5.7 78 0.0 10 5 16.1 97.85   -4 LegendNANA
04:00 -2.6 -5.6 80 0.0 5 5 16.1 97.86   -5 LegendNANA
05:00 -1.9 -5.4 77 0.0 8 5 16.1 97.89   -4 LegendNANA
06:00 0.3 -5.7 64 0.0 10 8 16.1 97.93     LegendNANA
07:00 1.4 -6.5 56 0.0 5 15 12.9 97.92     LegendNANA
08:00 2.5 -6.4 52 0.0 6 17 16.1 97.93     LegendNANA
09:00 3.7 -6.9 46 0.0 5 18 16.1 97.93     LegendNANA
10:00 5.3 -7.0 41 0.0 6 9 16.1 97.87     LegendNANA
11:00 5.9 -7.4 38 0.0 1 13 16.1 97.86     LegendNANA
12:00 7.9 -8.4 31 0.0 LegendMM 5 16.1 97.84     LegendNANA
13:00 8.2 -8.4 30 0.0 7 11 16.1 97.80     LegendNANA
14:00 9.3 -10.0 25 0.0 LegendMM 5 16.1 97.76     LegendNANA
15:00 11.0 -7.9 26 0.0 4 15 16.1 97.69     LegendNANA
16:00 10.9 -9.2 24 0.0 4 9 16.1 97.65     LegendNANA
17:00 10.9 -8.3 25 0.0 5 13 16.1 97.61     LegendNANA
18:00 10.8 -8.0 26 0.0 2 8 16.1 97.60     LegendNANA
19:00 9.8 -6.3 32 0.0 5 8 16.1 97.60     LegendNANA
20:00 8.3 -7.1 33 0.0 11 8 16.1 97.61     LegendNANA
21:00 7.7 -7.2 34 0.0 12 5 16.1 97.65     LegendNANA
22:00 6.6 -7.1 37 0.0   0 16.1 97.67     LegendNANA
23:00 4.4 -2.3 62 0.0 9 4 16.1 97.68     LegendNANA

Notes on Data Quality.

Legend

  • E = Estimated
  • M = Missing
  • NA = Not Available*
  • [empty] = Indicates an unobserved value
Date modified: